Погода в Курганах

Россия / Тверская область     58°04′54″N   36°17′29″E
темп.,
°C
ветер,
м/с
пор.,
м/с
влажн.,
%
обл.,
%
осадки,
мм/ч
давл.,
гПа
погр.,
м
10 мая, пн
пн1000:00+2ссз22680 0.0 102236
03:00+1ссз22690 0.0 102517
06:00+3ссз116454 0.0 102638
09:00+9юз11447 0.0 1027528
12:00+14юз123617 0.0 10271405
15:00+15юз22345 0.0 10271598
18:00+14ююв234698 0.0 1027469
21:00+8ююв246693 0.0 102861
11 мая, вт
вт1100:00+6ю236910 0.0 102955
03:00+5ю227393 0.0 103028
06:00+7ю126998 0.0 103063
09:00+12ююв225118 0.0 1030383
12:00+17юв233919 0.0 1029853
15:00+18вюв34425 0.0 10281030
18:00+17вюв24545 0.0 1028861
21:00+11юв23795 0.0 102842
12 мая, ср
ср1200:00+8юв23855 0.0 102952
03:00+8в22855 0.0 102917
06:00+10вюв24825 0.0 1029108
09:00+16вюв24665 0.0 1028452
12:00+20в35570 0.0 10261081
15:00+22в465041 0.0 10241641
18:00+20в486417 0.3 10231130
21:00+15в3118512 0.6 1022317
13 мая, чт
чт1300:00+14вюв310897 0.3 1022411
03:00+11вюв28975 0.3 1022200
06:00+12вюв289374 0.0 1022320
09:00+13вюв3891100 0.1 1022477
12:00+15вюв378784 0.1 1021623
15:00+14ююв3794100 3.7 1020336
18:00+14вюв369697 2.7 1019358
21:00+12вюв249836 2.7 1019101
14 мая, пт
пт1400:00+11ююв249932 0.0 101977
03:00+10ююв119821 0.0 101917
06:00+11юв139691 0.0 102092
09:00+15юв2478100 0.0 1019422
12:00+19юв355953 0.0 10181037
15:00+21юв45528 0.0 10171455
18:00+20вюв476536 0.0 1015965
21:00+15вюв31189100 0.8 1014315